Tunica, MS

7:55 PM CDT on July 25, 2017 (GMT -0500)
Tunica

Weather History for KUTA - December, 2012

Change the Weather History Date:

Tuesday, December 4, 2012

  Actual Average (KAWM) Record (KAWM)
Temperature  
Mean Temperature 61 °F -  
Max Temperature 69 °F 54 °F 73 °F (2013)
Min Temperature 53 °F 34 °F 19 °F (2006)
Degree Days  
Heating Degree Days 4    
Growing Degree Days 11 (Base 50)    
Moisture  
Dew Point 58 °F    
Average Humidity 88    
Maximum Humidity 100    
Minimum Humidity 78    
Precipitation  
Precipitation 0.57 in - - ()
Sea Level Pressure  
Sea Level Pressure 30.16 in    
Wind  
Wind Speed 11 mph (SSW)    
Max Wind Speed 18 mph    
Max Gust Speed 22 mph    
Visibility 9 miles    
Events Rain , Thunderstorm    
Averages and records for this station are not official NWS values.
T = Trace of Precipitation, MM = Missing Value Source: NWS Daily Summary

Daily Weather History Graph

Daily Weather History Graph

Search for Another Location

Airport or City:

Trip Planner

Search our weather history database for the weather conditions in past years. The results will help you decide how hot, cold, wet, or windy it might be!

Date:

Astronomy

Dec. 04, 2012 Rise Set
Actual Time 6:53 AM CST 4:50 PM CST
Civil Twilight 6:25 AM CST 5:18 PM CST
Nautical Twilight 5:54 AM CST 5:49 PM CST
Astronomical Twilight 5:23 AM CST 6:19 PM CST
Moon 10:28 PM CST (12/4) 10:55 AM CST (12/4)
Length of Visible Light 10h 52m
Length of Day
9h 57m
Waning Gibbous, 69% of the Moon is Illuminated
Dec 4
Waning Gibbous
Dec 6
Last Quarter
Dec 13
New
Dec 19
First Quarter
Dec 28
Full

Hourly Weather History & Observations

Time (CST) Temp. Dew Point Humidity Pressure Visibility Wind Dir Wind Speed Gust Speed Precip Events Conditions
12:15 AM 66.2 °F 59.0 °F 78% 30.10 in 10.0 mi South 11.5 mph - N/A   Mostly Cloudy
12:35 AM 66.2 °F 59.0 °F 78% 30.10 in 10.0 mi South 12.7 mph - N/A   Overcast
12:55 AM 66.2 °F 59.0 °F 78% 30.10 in 10.0 mi South 12.7 mph - N/A   Overcast
1:15 AM 66.2 °F 59.0 °F 78% 30.10 in 10.0 mi South 13.8 mph 18.4 mph N/A   Overcast
1:35 AM 66.2 °F 59.0 °F 78% 30.10 in 10.0 mi South 13.8 mph - N/A   Mostly Cloudy
1:55 AM 64.4 °F 59.0 °F 83% 30.11 in 10.0 mi South 11.5 mph - N/A   Scattered Clouds
2:15 AM 64.4 °F 59.0 °F 83% 30.11 in 10.0 mi South 10.4 mph - N/A   Clear
2:55 AM 64.4 °F 59.0 °F 83% 30.10 in 10.0 mi South 11.5 mph - N/A   Clear
3:15 AM 62.6 °F 59.0 °F 88% 30.11 in 10.0 mi South 9.2 mph - N/A   Scattered Clouds
3:35 AM 64.4 °F 59.0 °F 83% 30.10 in 10.0 mi South 11.5 mph - N/A   Mostly Cloudy
3:55 AM 64.4 °F 59.0 °F 83% 30.10 in 10.0 mi South 16.1 mph 19.6 mph N/A   Overcast
4:15 AM 64.4 °F 59.0 °F 83% 30.10 in 10.0 mi South 12.7 mph 19.6 mph N/A   Overcast
4:35 AM 64.4 °F 59.0 °F 83% 30.10 in 10.0 mi South 11.5 mph - N/A   Overcast
4:55 AM 64.4 °F 60.8 °F 88% 30.11 in 10.0 mi South 9.2 mph - N/A   Overcast
5:15 AM 62.6 °F 59.0 °F 88% 30.11 in 10.0 mi South 9.2 mph - N/A   Scattered Clouds
5:35 AM 62.6 °F 59.0 °F 88% 30.11 in 10.0 mi South 10.4 mph - N/A   Scattered Clouds
5:55 AM 62.6 °F 60.8 °F 94% 30.10 in 10.0 mi South 12.7 mph - N/A   Scattered Clouds
6:15 AM 62.6 °F 60.8 °F 94% 30.11 in 10.0 mi South 11.5 mph - N/A   Mostly Cloudy
6:35 AM 64.4 °F 60.8 °F 88% 30.12 in 10.0 mi South 10.4 mph - N/A   Mostly Cloudy
6:55 AM 64.4 °F 60.8 °F 88% 30.12 in 10.0 mi South 11.5 mph - N/A   Mostly Cloudy
7:15 AM 64.4 °F 60.8 °F 88% 30.13 in 10.0 mi South 11.5 mph 16.1 mph N/A   Mostly Cloudy
7:55 AM 64.4 °F 60.8 °F 88% 30.13 in 10.0 mi South 12.7 mph 19.6 mph N/A   Mostly Cloudy
8:15 AM 66.2 °F 62.6 °F 88% 30.14 in 10.0 mi South 12.7 mph 18.4 mph N/A   Mostly Cloudy
8:35 AM 66.2 °F 62.6 °F 88% 30.15 in 10.0 mi South 13.8 mph 18.4 mph N/A   Mostly Cloudy
8:55 AM 68.0 °F 62.6 °F 83% 30.16 in 10.0 mi South 15.0 mph - N/A   Mostly Cloudy
9:15 AM 68.0 °F 62.6 °F 83% 30.16 in 10.0 mi South 15.0 mph 20.7 mph N/A   Mostly Cloudy
9:35 AM 68.0 °F 62.6 °F 83% 30.17 in 10.0 mi SSW 12.7 mph - N/A   Mostly Cloudy
9:55 AM 68.0 °F 62.6 °F 83% 30.16 in 10.0 mi SSW 16.1 mph 20.7 mph N/A   Mostly Cloudy
10:15 AM 69.8 °F 62.6 °F 78% 30.16 in 10.0 mi SSW 18.4 mph - N/A   Mostly Cloudy
10:35 AM 69.8 °F 62.6 °F 78% 30.16 in 10.0 mi SSW 13.8 mph - N/A   Mostly Cloudy
10:55 AM 69.8 °F 62.6 °F 78% 30.16 in 10.0 mi SSW 16.1 mph - N/A   Mostly Cloudy
11:15 AM 69.8 °F 62.6 °F 78% 30.16 in 10.0 mi SSW 17.3 mph 21.9 mph N/A Thunderstorm Overcast
11:35 AM 69.8 °F 62.6 °F 78% 30.16 in 10.0 mi SSW 15.0 mph 21.9 mph N/A   Mostly Cloudy
12:15 PM 69.8 °F 62.6 °F 78% 30.15 in 10.0 mi WSW 9.2 mph - N/A   Mostly Cloudy
12:35 PM 60.8 °F 55.4 °F 82% 30.18 in 3.0 mi North 9.2 mph - 0.10 in Rain Heavy Rain
12:55 PM 60.8 °F 57.2 °F 88% 30.16 in 7.0 mi North 16.1 mph 19.6 mph 0.18 in Rain , Thunderstorm Light Thunderstorms and Rain
1:15 PM 59.0 °F 57.2 °F 94% 30.18 in 4.0 mi NNW 6.9 mph - 0.18 in Rain , Thunderstorm Heavy Thunderstorms and Rain
1:35 PM 59.0 °F 57.2 °F 94% 30.16 in 10.0 mi East 4.6 mph - 0.21 in Rain , Thunderstorm Light Thunderstorms and Rain
1:55 PM 59.0 °F 57.2 °F 94% 30.16 in 10.0 mi ESE 5.8 mph - 0.22 in Rain Rain
2:15 PM 59.0 °F 57.2 °F 94% 30.16 in 10.0 mi ESE 5.8 mph - 0.01 in Rain Light Rain
2:35 PM 59.0 °F 57.2 °F 94% 30.16 in 10.0 mi SE 3.5 mph - 0.03 in Rain Rain
2:55 PM 59.0 °F 59.0 °F 100% 30.17 in 10.0 mi SSE 5.8 mph - 0.03 in Rain Light Rain
3:15 PM 59.0 °F 59.0 °F 100% 30.16 in 10.0 mi South 4.6 mph - 0.01 in Rain Light Rain
3:35 PM 59.0 °F 57.2 °F 94% 30.13 in 10.0 mi Calm Calm - 0.02 in Rain , Thunderstorm Light Thunderstorms and Rain
3:55 PM 59.0 °F 57.2 °F 94% 30.14 in 10.0 mi Calm Calm - 0.03 in Rain Light Rain
4:15 PM 59.0 °F 57.2 °F 94% 30.14 in 5.0 mi Calm Calm - 0.04 in Rain Heavy Rain
4:55 PM 59.0 °F 57.2 °F 94% 30.12 in 10.0 mi SSE 4.6 mph - 0.09 in Rain Rain
5:15 PM 59.0 °F 55.4 °F 88% 30.13 in 10.0 mi Calm Calm - 0.02 in Rain Light Rain
5:35 PM 59.0 °F 55.4 °F 88% 30.14 in 10.0 mi North 6.9 mph - 0.02 in   Scattered Clouds
5:55 PM 59.0 °F 55.4 °F 88% 30.17 in 10.0 mi North 3.5 mph - 0.02 in   Clear
6:15 PM 59.0 °F 55.4 °F 88% 30.19 in 10.0 mi NW 3.5 mph - N/A   Clear
6:35 PM 59.0 °F 55.4 °F 88% 30.18 in 10.0 mi Calm Calm - N/A   Clear
6:55 PM 59.0 °F 55.4 °F 88% 30.20 in 10.0 mi NNW 3.5 mph - N/A   Scattered Clouds
7:15 PM 59.0 °F 55.4 °F 88% 30.20 in 10.0 mi Calm Calm - N/A   Mostly Cloudy
7:35 PM 59.0 °F 55.4 °F 88% 30.21 in 10.0 mi North 4.6 mph - N/A   Overcast
7:55 PM 59.0 °F 55.4 °F 88% 30.21 in 10.0 mi NNW 4.6 mph - N/A   Overcast
8:15 PM 59.0 °F 55.4 °F 88% 30.21 in 10.0 mi North 6.9 mph - N/A   Overcast
8:35 PM 59.0 °F 55.4 °F 88% 30.21 in 10.0 mi NNW 6.9 mph - N/A   Overcast
8:55 PM 59.0 °F 55.4 °F 88% 30.21 in 10.0 mi North 9.2 mph - N/A   Overcast
9:15 PM 57.2 °F 55.4 °F 94% 30.21 in 10.0 mi North 10.4 mph - N/A   Overcast
9:35 PM 55.4 °F 53.6 °F 94% 30.21 in 10.0 mi North 11.5 mph - N/A   Overcast
9:55 PM 55.4 °F 53.6 °F 94% 30.21 in 4.0 mi NNW 13.8 mph - N/A   Overcast
10:15 PM 53.6 °F 51.8 °F 94% 30.22 in 7.0 mi North 12.7 mph - N/A   Overcast
10:35 PM 53.6 °F 51.8 °F 94% 30.22 in 7.0 mi North 12.7 mph 18.4 mph N/A   Overcast
10:55 PM 53.6 °F 51.8 °F 94% 30.23 in 7.0 mi North 11.5 mph - N/A   Overcast
11:15 PM 53.6 °F 51.8 °F 94% 30.23 in 7.0 mi North 8.1 mph - N/A   Overcast
11:35 PM 53.6 °F 51.8 °F 94% 30.24 in 7.0 mi North 9.2 mph - N/A   Overcast
11:55 PM 53.6 °F 51.8 °F 94% 30.24 in 5.0 mi North 10.4 mph - N/A   Overcast